| time (UTC) | temp F | wind direction | speed knots | gust knots | rain 1hr in | rain 24hr in | rain mn in | humidity % | barometer mb |
| 20260510033502 | 78 | 138 | 0.0 | 3.5 | 0.00 | 0.02 | 0.02 | 75 | 1010.1 |
| 20260510033000 | 79 | 57 | 0.0 | 1.7 | 0.00 | 0.02 | 0.02 | 75 | 1010.2 |
| 20260510032457 | 79 | 124 | 1.7 | 2.6 | 0.00 | 0.02 | 0.02 | 75 | 1010.0 |
| 20260510031956 | 79 | 126 | 3.5 | 3.5 | 0.00 | 0.02 | 0.02 | 75 | 1010.0 |
| 20260510031452 | 79 | 163 | 0.9 | 3.5 | 0.00 | 0.02 | 0.02 | 75 | 1009.9 |
| 20260510030948 | 79 | 141 | 2.6 | 3.5 | 0.00 | 0.02 | 0.02 | 75 | 1009.7 |
| 20260510030443 | 80 | 202 | 0.0 | 2.6 | 0.00 | 0.02 | 0.02 | 74 | 1009.8 |
| 20260510025941 | 80 | 127 | 0.0 | 1.7 | 0.00 | 0.02 | 0.02 | 73 | 1009.8 |
| 20260510025438 | 80 | 167 | 1.7 | 3.5 | 0.00 | 0.02 | 0.02 | 73 | 1009.5 |
| 20260510024936 | 80 | 149 | 0.9 | 2.6 | 0.00 | 0.02 | 0.02 | 72 | 1009.6 |
| 20260510024432 | 81 | 134 | 1.7 | 3.5 | 0.00 | 0.02 | 0.02 | 72 | 1009.6 |
| 20260510023928 | 81 | 161 | 0.0 | 4.3 | 0.00 | 0.02 | 0.02 | 71 | 1009.3 |
| 20260510023425 | 80 | 148 | 1.7 | 3.5 | 0.00 | 0.02 | 0.02 | 71 | 1009.5 |
| 20260510022922 | 81 | 181 | 0.0 | 1.7 | 0.00 | 0.02 | 0.02 | 71 | 1009.2 |
| 20260510022421 | 80 | 146 | 0.9 | 2.6 | 0.00 | 0.02 | 0.02 | 71 | 1009.1 |
| 20260510021920 | 81 | 185 | 0.9 | 2.6 | 0.00 | 0.02 | 0.02 | 70 | 1009.1 |
| 20260510021418 | 81 | 139 | 2.6 | 2.6 | 0.00 | 0.02 | 0.02 | 69 | 1009.1 |
| 20260510020915 | 81 | 119 | 1.7 | 2.6 | 0.00 | 0.02 | 0.02 | 69 | 1008.9 |
| 20260510020410 | 81 | 104 | 0.9 | 3.5 | 0.00 | 0.02 | 0.02 | 68 | 1009.0 |
| 20260510015906 | 81 | 196 | 0.0 | 2.6 | 0.00 | 0.02 | 0.02 | 67 | 1009.0 |
| 20260510015401 | 81 | 152 | 0.9 | 4.3 | 0.00 | 0.02 | 0.02 | 66 | 1008.8 |
| 20260510014857 | 82 | 144 | 1.7 | 1.7 | 0.00 | 0.02 | 0.02 | 65 | 1008.9 |
| 20260510014354 | 82 | 156 | 0.9 | 2.6 | 0.00 | 0.02 | 0.02 | 64 | 1008.8 |
| 20260510013851 | 82 | 134 | 1.7 | 1.7 | 0.00 | 0.02 | 0.02 | 63 | 1008.8 |
| 20260510013346 | 82 | 142 | 0.9 | 2.6 | 0.00 | 0.02 | 0.02 | 62 | 1008.6 |
| 20260510012841 | 83 | 146 | 1.7 | 2.6 | 0.00 | 0.02 | 0.02 | 61 | 1008.6 |
| 20260510012341 | 83 | 187 | 0.0 | 4.3 | 0.00 | 0.02 | 0.02 | 60 | 1008.5 |
| 20260510011836 | 83 | 146 | 0.9 | 2.6 | 0.00 | 0.02 | 0.02 | 60 | 1008.7 |
| 20260510011332 | 83 | 153 | 1.7 | 3.5 | 0.00 | 0.02 | 0.02 | 59 | 1008.5 |
| 20260510010828 | 84 | 148 | 2.6 | 2.6 | 0.00 | 0.02 | 0.02 | 58 | 1008.5 |
| 20260510010326 | 84 | 137 | 0.9 | 3.5 | 0.00 | 0.02 | 0.02 | 57 | 1008.3 |
| 20260510005822 | 84 | 164 | 0.0 | 3.5 | 0.00 | 0.02 | 0.02 | 57 | 1008.4 |
| 20260510005318 | 84 | 118 | 0.9 | 3.5 | 0.00 | 0.02 | 0.02 | 55 | 1008.2 |
| 20260510004817 | 85 | 144 | 1.7 | 2.6 | 0.00 | 0.02 | 0.02 | 54 | 1008.2 |
| 20260510004314 | 85 | 125 | 1.7 | 4.3 | 0.00 | 0.02 | 0.02 | 53 | 1008.2 |
| 20260510003811 | 85 | 174 | 0.9 | 3.5 | 0.00 | 0.02 | 0.02 | 53 | 1008.2 |
| 20260510003308 | 86 | 89 | 0.0 | 3.5 | 0.00 | 0.02 | 0.02 | 52 | 1008.1 |
| 20260510002807 | 86 | 152 | 5.2 | 5.2 | 0.00 | 0.02 | 0.02 | 51 | 1008.1 |
| 20260510002306 | 86 | 147 | 2.6 | 4.3 | 0.00 | 0.02 | 0.02 | 50 | 1008.1 |
| 20260510001800 | 86 | 93 | 0.9 | 3.5 | 0.00 | 0.02 | 0.02 | 51 | 1008.0 |
| 20260510001259 | 87 | 197 | 0.9 | 3.5 | 0.00 | 0.02 | 0.02 | 49 | 1008.0 |
| 20260510000754 | 87 | 174 | 0.9 | 2.6 | 0.00 | 0.02 | 0.02 | 48 | 1007.9 |
| 20260510000252 | 87 | 140 | 0.9 | 1.7 | 0.00 | 0.02 | 0.02 | 46 | 1008.0 |
| 20260509235749 | 87 | 150 | 0.0 | 3.5 | 0.00 | 0.02 | 0.02 | 46 | 1007.8 |
| 20260509235245 | 88 | 150 | 1.7 | 2.6 | 0.00 | 0.02 | 0.02 | 46 | 1007.9 |
| 20260509234741 | 88 | 173 | 0.0 | 1.7 | 0.00 | 0.02 | 0.02 | 46 | 1007.9 |
| 20260509234238 | 88 | 61 | 0.0 | 1.7 | 0.00 | 0.02 | 0.02 | 45 | 1007.7 |
| 20260509233736 | 89 | 191 | 1.7 | 3.5 | 0.00 | 0.02 | 0.02 | 44 | 1007.7 |
| 20260509233234 | 89 | 84 | 0.0 | 1.7 | 0.00 | 0.02 | 0.02 | 44 | 1007.8 |
| 20260509232730 | 89 | 154 | 0.0 | 1.7 | 0.00 | 0.02 | 0.02 | 45 | 1007.7 |
| 20260509232227 | 89 | 136 | 1.7 | 3.5 | 0.00 | 0.02 | 0.02 | 45 | 1007.7 |
| 20260509231723 | 89 | 68 | 1.7 | 2.6 | 0.00 | 0.02 | 0.02 | 44 | 1007.5 |
| 20260509231221 | 90 | 103 | 0.0 | 1.7 | 0.00 | 0.02 | 0.02 | 44 | 1007.7 |
| 20260509230718 | 90 | 210 | 1.7 | 2.6 | 0.00 | 0.02 | 0.02 | 43 | 1007.8 |
| 20260509230215 | 91 | 231 | 0.0 | 1.7 | 0.00 | 0.02 | 0.02 | 43 | 1007.6 |
| 20260509225710 | 92 | 140 | 1.7 | 2.6 | 0.00 | 0.02 | 0.02 | 43 | 1007.5 |
| 20260509225206 | 92 | 24 | 0.9 | 2.6 | 0.00 | 0.02 | 0.02 | 43 | 1007.8 |
| 20260509224702 | 93 | 196 | 0.9 | 1.7 | 0.00 | 0.02 | 0.02 | 42 | 1007.6 |
| 20260509224159 | 93 | 232 | 0.0 | 1.7 | 0.00 | 0.02 | 0.02 | 42 | 1007.6 |
| 20260509223656 | 93 | 95 | 0.0 | 1.7 | 0.00 | 0.02 | 0.02 | 43 | 1007.7 |
| 20260509223153 | 93 | 61 | 1.7 | 1.7 | 0.00 | 0.02 | 0.02 | 44 | 1007.7 |
| 20260509222650 | 93 | 209 | 1.7 | 2.6 | 0.00 | 0.02 | 0.02 | 44 | 1007.7 |
| 20260509222145 | 93 | 97 | 0.9 | 1.7 | 0.00 | 0.02 | 0.02 | 43 | 1007.7 |
| 20260509221641 | 92 | 47 | 0.9 | 1.7 | 0.00 | 0.02 | 0.02 | 44 | 1007.8 |
| 20260509221138 | 93 | 224 | 0.0 | 2.6 | 0.00 | 0.02 | 0.02 | 44 | 1007.5 |
| 20260509220634 | 93 | 163 | 0.9 | 1.7 | 0.00 | 0.02 | 0.02 | 44 | 1007.5 |
| 20260509220130 | 92 | 182 | 0.9 | 1.7 | 0.00 | 0.02 | 0.02 | 44 | 1007.7 |
| 20260509215626 | 92 | 249 | 0.0 | 2.6 | 0.00 | 0.02 | 0.02 | 44 | 1007.8 |
| 20260509215123 | 92 | 16 | 0.0 | 2.6 | 0.00 | 0.02 | 0.02 | 46 | 1007.8 |
| 20260509214620 | 91 | 167 | 1.7 | 2.6 | 0.00 | 0.02 | 0.02 | 45 | 1007.9 |
| 20260509214116 | 91 | 211 | 0.0 | 3.5 | 0.00 | 0.02 | 0.02 | 47 | 1007.8 |
| 20260509213613 | 91 | 188 | 2.6 | 5.2 | 0.00 | 0.02 | 0.02 | 47 | 1007.8 |
| 20260509213109 | 90 | 204 | 0.0 | 4.3 | 0.00 | 0.02 | 0.02 | 49 | 1007.9 |
| 20260509212607 | 92 | 223 | 1.7 | 5.2 | 0.00 | 0.02 | 0.02 | 48 | 1008.0 |
| 20260509212104 | 95 | 62 | 0.0 | 3.5 | 0.00 | 0.02 | 0.02 | 44 | 1008.0 |
| 20260509211559 | 96 | 192 | 0.0 | 3.5 | 0.00 | 0.02 | 0.02 | 39 | 1007.9 |
| 20260509211056 | 96 | 240 | 0.0 | 1.7 | 0.00 | 0.02 | 0.02 | 41 | 1008.1 |
| 20260509210553 | 95 | 257 | 0.0 | 2.6 | 0.00 | 0.02 | 0.02 | 39 | 1008.1 |
| 20260509210050 | 95 | 109 | 0.0 | 2.6 | 0.00 | 0.02 | 0.02 | 39 | 1008.1 |
| 20260509205549 | 94 | 205 | 0.9 | 3.5 | 0.00 | 0.02 | 0.02 | 39 | 1008.0 |
| 20260509205045 | 95 | 150 | 1.7 | 1.7 | 0.00 | 0.02 | 0.02 | 39 | 1008.1 |
| 20260509204542 | 95 | 195 | 1.7 | 1.7 | 0.00 | 0.02 | 0.02 | 39 | 1008.1 |
| 20260509204038 | 94 | 65 | 1.7 | 1.7 | 0.00 | 0.02 | 0.02 | 41 | 1008.4 |
| 20260509203533 | 93 | 180 | 0.9 | 1.7 | 0.00 | 0.02 | 0.02 | 44 | 1008.4 |
| 20260509203032 | 93 | 229 | 0.9 | 1.7 | 0.00 | 0.02 | 0.02 | 43 | 1008.7 |
| 20260509202527 | 91 | 232 | 1.7 | 3.5 | 0.00 | 0.02 | 0.02 | 45 | 1008.7 |
| 20260509202023 | 91 | 89 | 0.0 | 1.7 | 0.00 | 0.02 | 0.02 | 46 | 1008.9 |
| 20260509201518 | 92 | 247 | 0.0 | 1.7 | 0.00 | 0.02 | 0.02 | 44 | 1008.9 |
| 20260509201016 | 93 | 77 | 0.9 | 1.7 | 0.00 | 0.02 | 0.02 | 43 | 1008.9 |
| 20260509200515 | 93 | 138 | 1.7 | 2.6 | 0.00 | 0.02 | 0.02 | 43 | 1008.8 |
| 20260509200012 | 93 | 74 | 2.6 | 2.6 | 0.00 | 0.02 | 0.02 | 44 | 1008.8 |
| 20260509195508 | 92 | 323 | 0.9 | 3.5 | 0.00 | 0.02 | 0.02 | 45 | 1009.0 |
| 20260509195007 | 93 | 189 | 1.7 | 3.5 | 0.00 | 0.02 | 0.02 | 44 | 1008.8 |
| 20260509194503 | 93 | 100 | 0.0 | 3.5 | 0.00 | 0.02 | 0.02 | 43 | 1008.9 |
| 20260509194000 | 93 | 186 | 2.6 | 3.5 | 0.00 | 0.02 | 0.02 | 48 | 1008.9 |
| 20260509193500 | 92 | 13 | 1.7 | 1.7 | 0.00 | 0.02 | 0.02 | 48 | 1008.9 |
| 20260509192957 | 90 | 54 | 0.0 | 1.7 | 0.00 | 0.02 | 0.02 | 50 | 1009.0 |
| 20260509192453 | 91 | 196 | 0.0 | 1.7 | 0.00 | 0.02 | 0.02 | 52 | 1009.0 |
| 20260509191948 | 92 | 181 | 1.7 | 3.5 | 0.00 | 0.02 | 0.02 | 48 | 1009.1 |
| 20260509191443 | 92 | 139 | 0.9 | 3.5 | 0.00 | 0.02 | 0.02 | 49 | 1009.2 |
| 20260509190940 | 91 | 174 | 1.7 | 1.7 | 0.00 | 0.02 | 0.02 | 52 | 1009.4 |
| 20260509190437 | 91 | 331 | 0.9 | 2.6 | 0.00 | 0.02 | 0.02 | 52 | 1009.5 |
| 20260509185935 | 91 | 54 | 0.0 | 3.5 | 0.00 | 0.02 | 0.02 | 52 | 1009.5 |
| 20260509185432 | 91 | 243 | 1.7 | 1.7 | 0.00 | 0.02 | 0.02 | 52 | 1009.4 |
| 20260509184928 | 92 | 148 | 2.6 | 3.5 | 0.00 | 0.02 | 0.02 | 51 | 1009.8 |
| 20260509184426 | 92 | 292 | 1.7 | 3.5 | 0.00 | 0.02 | 0.02 | 52 | 1009.8 |
| 20260509183923 | 91 | 217 | 0.9 | 3.5 | 0.00 | 0.02 | 0.02 | 54 | 1009.9 |
| 20260509183417 | 91 | 165 | 2.6 | 3.5 | 0.00 | 0.02 | 0.02 | 52 | 1010.1 |
| 20260509182914 | 91 | 224 | 1.7 | 1.7 | 0.00 | 0.02 | 0.02 | 55 | 1010.0 |
| 20260509182410 | 90 | 298 | 0.9 | 2.6 | 0.00 | 0.02 | 0.02 | 55 | 1010.0 |
| 20260509181908 | 91 | 15 | 0.0 | 2.6 | 0.00 | 0.02 | 0.02 | 52 | 1010.2 |
| 20260509181405 | 91 | 306 | 0.0 | 1.7 | 0.00 | 0.02 | 0.02 | 53 | 1010.2 |
| 20260509180902 | 91 | 168 | 0.9 | 3.5 | 0.00 | 0.02 | 0.02 | 54 | 1010.3 |
| 20260509180358 | 91 | 309 | 1.7 | 2.6 | 0.00 | 0.02 | 0.02 | 53 | 1010.5 |
| 20260509175855 | 90 | 116 | 1.7 | 1.7 | 0.00 | 0.02 | 0.02 | 55 | 1010.5 |
| 20260509175351 | 89 | 214 | 0.9 | 3.5 | 0.00 | 0.02 | 0.02 | 57 | 1010.3 |
| 20260509174847 | 90 | 350 | 1.7 | 2.6 | 0.00 | 0.02 | 0.02 | 56 | 1010.4 |
| 20260509174344 | 90 | 72 | 0.0 | 1.7 | 0.00 | 0.02 | 0.02 | 55 | 1010.5 |
| 20260509173839 | 90 | 215 | 1.7 | 1.7 | 0.00 | 0.02 | 0.02 | 56 | 1010.7 |
| 20260509173335 | 89 | 32 | 0.0 | 1.7 | 0.00 | 0.02 | 0.02 | 56 | 1010.9 |
| 20260509172831 | 89 | 180 | 1.7 | 2.6 | 0.00 | 0.02 | 0.02 | 55 | 1011.0 |
| 20260509172328 | 88 | 207 | 0.9 | 2.6 | 0.00 | 0.02 | 0.02 | 58 | 1010.7 |
| 20260509171824 | 87 | 336 | 0.9 | 2.6 | 0.00 | 0.02 | 0.02 | 60 | 1010.8 |
| 20260509171320 | 87 | 219 | 1.7 | 2.6 | 0.00 | 0.02 | 0.02 | 62 | 1010.7 |
| 20260509170816 | 88 | 275 | 0.9 | 2.6 | 0.00 | 0.02 | 0.02 | 61 | 1010.7 |
| 20260509170312 | 87 | 176 | 0.9 | 1.7 | 0.00 | 0.02 | 0.02 | 62 | 1010.7 |
| 20260509165812 | 87 | 74 | 1.7 | 2.6 | 0.00 | 0.02 | 0.02 | 60 | 1010.8 |
| 20260509165307 | 86 | 349 | 0.0 | 1.7 | 0.00 | 0.02 | 0.02 | 62 | 1010.8 |
| 20260509164803 | 86 | 135 | 3.5 | 3.5 | 0.00 | 0.02 | 0.02 | 63 | 1010.8 |
| 20260509164259 | 85 | 159 | 1.7 | 2.6 | 0.00 | 0.02 | 0.02 | 64 | 1011.0 |
| 20260509163756 | 85 | 150 | 3.5 | 3.5 | 0.00 | 0.02 | 0.02 | 65 | 1010.9 |
| 20260509163252 | 85 | 300 | 1.7 | 2.6 | 0.00 | 0.02 | 0.02 | 68 | 1011.0 |
| 20260509162751 | 84 | 236 | 0.9 | 3.5 | 0.00 | 0.02 | 0.02 | 68 | 1011.0 |
| 20260509162245 | 84 | 207 | 0.9 | 3.5 | 0.00 | 0.02 | 0.02 | 69 | 1010.7 |
| 20260509161741 | 83 | 219 | 1.7 | 3.5 | 0.00 | 0.02 | 0.02 | 70 | 1011.0 |
| 20260509161237 | 83 | 202 | 2.6 | 3.5 | 0.00 | 0.02 | 0.02 | 70 | 1010.9 |
| 20260509160732 | 82 | 75 | 1.7 | 3.5 | 0.00 | 0.02 | 0.02 | 74 | 1011.1 |
| 20260509160229 | 81 | 183 | 1.7 | 3.5 | 0.00 | 0.02 | 0.02 | 75 | 1010.9 |
| 20260509155724 | 81 | 133 | 1.7 | 5.2 | 0.00 | 0.02 | 0.02 | 76 | 1011.2 |
| 20260509155221 | 79 | 186 | 2.6 | 4.3 | 0.00 | 0.02 | 0.02 | 79 | 1011.3 |
| 20260509154717 | 78 | 110 | 1.7 | 2.6 | 0.00 | 0.02 | 0.02 | 82 | 1011.3 |
| 20260509154214 | 77 | 127 | 1.7 | 7.8 | 0.00 | 0.02 | 0.02 | 83 | 1011.1 |
| 20260509153712 | 77 | 132 | 2.6 | 5.2 | 0.00 | 0.02 | 0.02 | 83 | 1011.2 |
| 20260509153208 | 77 | 164 | 2.6 | 7.0 | 0.00 | 0.02 | 0.02 | 84 | 1011.3 |
| 20260509152704 | 77 | 130 | 2.6 | 4.3 | 0.00 | 0.02 | 0.02 | 85 | 1011.0 |
| 20260509152200 | 77 | 126 | 1.7 | 4.3 | 0.00 | 0.02 | 0.02 | 85 | 1011.2 |
| 20260509151657 | 77 | 144 | 4.3 | 4.3 | 0.00 | 0.02 | 0.02 | 86 | 1011.1 |
| 20260509151154 | 77 | 139 | 2.6 | 5.2 | 0.00 | 0.02 | 0.02 | 85 | 1010.9 |
| 20260509150652 | 77 | 136 | 1.7 | 2.6 | 0.00 | 0.02 | 0.02 | 85 | 1010.9 |
| 20260509150150 | 77 | 149 | 1.7 | 3.5 | 0.00 | 0.02 | 0.02 | 85 | 1010.9 |
| 20260509145646 | 77 | 183 | 1.7 | 4.3 | 0.00 | 0.02 | 0.02 | 85 | 1010.6 |
| 20260509145142 | 77 | 177 | 1.7 | 2.6 | 0.00 | 0.02 | 0.02 | 85 | 1010.9 |
| 20260509144638 | 77 | 142 | 2.6 | 4.3 | 0.00 | 0.02 | 0.02 | 84 | 1010.8 |
| 20260509144136 | 78 | 145 | 2.6 | 3.5 | 0.00 | 0.02 | 0.02 | 83 | 1010.9 |
| 20260509143633 | 79 | 139 | 1.7 | 5.2 | 0.00 | 0.02 | 0.02 | 81 | 1010.8 |
| 20260509143130 | 79 | 148 | 0.9 | 4.3 | 0.00 | 0.02 | 0.02 | 82 | 1010.3 |
| 20260509142625 | 79 | 104 | 0.9 | 3.5 | 0.00 | 0.02 | 0.02 | 83 | 1010.2 |
| 20260509142122 | 78 | 139 | 1.7 | 5.2 | 0.00 | 0.02 | 0.02 | 83 | 1010.2 |
| 20260509141618 | 79 | 129 | 3.5 | 4.3 | 0.00 | 0.02 | 0.02 | 84 | 1010.1 |
| 20260509141115 | 79 | 167 | 1.7 | 4.3 | 0.00 | 0.02 | 0.02 | 83 | 1010.0 |
| 20260509140612 | 78 | 114 | 1.7 | 4.3 | 0.00 | 0.02 | 0.02 | 84 | 1009.9 |
| 20260509140110 | 77 | 135 | 2.6 | 5.2 | 0.00 | 0.02 | 0.02 | 86 | 1009.8 |
| 20260509135607 | 76 | 124 | 2.6 | 2.6 | 0.00 | 0.02 | 0.02 | 88 | 1009.9 |
| 20260509135105 | 76 | 124 | 3.5 | 3.5 | 0.00 | 0.02 | 0.02 | 90 | 1009.8 |
| 20260509134601 | 75 | 230 | 1.7 | 5.2 | 0.00 | 0.02 | 0.02 | 91 | 1010.0 |
| 20260509134058 | 75 | 198 | 0.9 | 4.3 | 0.00 | 0.02 | 0.02 | 92 | 1009.8 |
| 20260509133555 | 75 | 138 | 3.5 | 4.3 | 0.00 | 0.02 | 0.02 | 93 | 1010.1 |
| 20260509133053 | 74 | 183 | 1.7 | 4.3 | 0.00 | 0.02 | 0.02 | 95 | 1010.1 |
| 20260509132551 | 74 | 133 | 2.6 | 3.5 | 0.00 | 0.02 | 0.02 | 96 | 1010.2 |
| 20260509132049 | 73 | 150 | 1.7 | 1.7 | 0.00 | 0.02 | 0.02 | 97 | 1010.7 |
| 20260509131545 | 72 | 135 | 0.9 | 1.7 | 0.00 | 0.02 | 0.02 | 97 | 1010.6 |
| 20260509131042 | 72 | 114 | 0.9 | 2.6 | 0.00 | 0.02 | 0.02 | 97 | 1010.7 |
| 20260509130537 | 72 | 140 | 0.9 | 1.7 | 0.00 | 0.02 | 0.02 | 97 | 1010.9 |
| 20260509130035 | 72 | 80 | 1.7 | 1.7 | 0.00 | 0.02 | 0.02 | 97 | 1011.0 |
| 20260509125531 | 72 | 81 | 0.0 | 1.7 | 0.00 | 0.02 | 0.02 | 97 | 1011.0 |
| 20260509125027 | 72 | 104 | 0.0 | 1.7 | 0.00 | 0.02 | 0.02 | 97 | 1010.8 |
| 20260509124524 | 72 | 154 | 1.7 | 2.6 | 0.00 | 0.02 | 0.02 | 97 | 1010.7 |
| 20260509124022 | 72 | 107 | 1.7 | 1.7 | 0.02 | 0.02 | 0.02 | 97 | 1010.6 |
| 20260509123520 | 72 | 106 | 1.7 | 1.7 | 0.02 | 0.02 | 0.02 | 97 | 1010.8 |
| 20260509123015 | 72 | 97 | 0.9 | 1.7 | 0.00 | 0.01 | 0.01 | 97 | 1010.3 |
| 20260509122512 | 72 | 143 | 1.7 | 1.7 | 0.00 | 0.01 | 0.01 | 97 | 1010.2 |
| 20260509122009 | 72 | 76 | 0.0 | 1.7 | 0.00 | 0.01 | 0.01 | 97 | 1010.2 |
| 20260509121505 | 72 | 127 | 0.9 | 1.7 | 0.00 | 0.01 | 0.01 | 97 | 1010.5 |
| 20260509121004 | 72 | 119 | 1.7 | 1.7 | 0.00 | 0.01 | 0.01 | 97 | 1010.3 |
| 20260509120501 | 72 | 116 | 0.0 | 1.7 | 0.00 | 0.01 | 0.01 | 97 | 1010.2 |
| 20260509115959 | 72 | 89 | 0.0 | 1.7 | 0.00 | 0.01 | 0.01 | 97 | 1010.5 |
| 20260509115456 | 72 | 92 | 0.9 | 1.7 | 0.00 | 0.01 | 0.01 | 97 | 1010.7 |
| 20260509114954 | 72 | 133 | 1.7 | 1.7 | 0.00 | 0.01 | 0.01 | 97 | 1010.9 |
| 20260509114452 | 72 | 163 | 0.0 | 1.7 | 0.00 | 0.01 | 0.01 | 97 | 1010.9 |
| 20260509113951 | 72 | 95 | 0.0 | 1.7 | 0.00 | 0.01 | 0.01 | 97 | 1010.5 |
| 20260509113448 | 72 | 99 | 0.9 | 1.7 | 0.00 | 0.01 | 0.01 | 97 | 1010.6 |
| 20260509112944 | 72 | 113 | 1.7 | 1.7 | 0.00 | 0.01 | 0.01 | 97 | 1010.8 |
| 20260509112442 | 72 | 104 | 0.9 | 1.7 | 0.00 | 0.01 | 0.01 | 97 | 1011.1 |
| 20260509111938 | 72 | 116 | 0.9 | 0.9 | 0.00 | 0.01 | 0.01 | 97 | 1011.4 |
| 20260509111436 | 72 | 79 | 0.0 | 0.9 | 0.00 | 0.01 | 0.01 | 97 | 1011.3 |
| 20260509110933 | 72 | 113 | 0.9 | 1.7 | 0.00 | 0.01 | 0.01 | 97 | 1011.5 |
| 20260509110429 | 72 | 63 | 0.0 | 0.9 | 0.00 | 0.01 | 0.01 | 97 | 1011.4 |
| 20260509105927 | 72 | 100 | 0.9 | 1.7 | 0.00 | 0.01 | 0.01 | 97 | 1011.5 |
| 20260509105426 | 72 | 125 | 0.9 | 1.7 | 0.00 | 0.01 | 0.01 | 97 | 1011.6 |
| 20260509104922 | 72 | 117 | 1.7 | 1.7 | 0.00 | 0.01 | 0.01 | 97 | 1011.5 |
| 20260509104419 | 72 | 117 | 0.0 | 0.9 | 0.00 | 0.01 | 0.01 | 97 | 1011.5 |
| 20260509103916 | 72 | 142 | 0.0 | 1.7 | 0.00 | 0.01 | 0.01 | 96 | 1011.5 |
| 20260509103413 | 72 | 117 | 0.0 | 1.7 | 0.00 | 0.01 | 0.01 | 96 | 1011.4 |
| 20260509102912 | 72 | 141 | 0.0 | 1.7 | 0.00 | 0.01 | 0.01 | 96 | 1011.5 |
| 20260509102409 | 72 | 122 | 1.7 | 2.6 | 0.00 | 0.01 | 0.01 | 96 | 1011.5 |
| 20260509101905 | 72 | 111 | 0.0 | 0.9 | 0.00 | 0.01 | 0.01 | 96 | 1011.3 |
| 20260509101401 | 72 | 115 | 0.9 | 1.7 | 0.00 | 0.01 | 0.01 | 96 | 1011.2 |
| 20260509100859 | 72 | 151 | 0.0 | 1.7 | 0.00 | 0.01 | 0.01 | 96 | 1011.1 |
| 20260509100356 | 72 | 50 | 0.0 | 0.9 | 0.00 | 0.01 | 0.01 | 96 | 1010.8 |
| 20260509095852 | 72 | 79 | 0.0 | 1.7 | 0.00 | 0.01 | 0.01 | 96 | 1010.3 |
| 20260509095350 | 72 | 65 | 0.9 | 0.9 | 0.00 | 0.01 | 0.01 | 96 | 1010.3 |
| 20260509094847 | 72 | 103 | 0.0 | 0.9 | 0.00 | 0.01 | 0.01 | 96 | 1010.3 |
| 20260509094343 | 72 | 107 | 0.0 | 1.7 | 0.00 | 0.01 | 0.01 | 96 | 1010.0 |
| 20260509093841 | 72 | 112 | 0.9 | 1.7 | 0.00 | 0.01 | 0.01 | 96 | 1010.1 |
| 20260509093338 | 72 | 84 | 0.9 | 1.7 | 0.00 | 0.01 | 0.01 | 96 | 1010.1 |
| 20260509092837 | 72 | 130 | 0.9 | 1.7 | 0.00 | 0.01 | 0.01 | 96 | 1010.1 |
| 20260509092334 | 72 | 94 | 0.0 | 0.9 | 0.00 | 0.01 | 0.01 | 96 | 1010.0 |
| 20260509091832 | 72 | 87 | 0.9 | 1.7 | 0.00 | 0.01 | 0.01 | 96 | 1010.0 |
| 20260509091328 | 72 | 114 | 0.9 | 1.7 | 0.00 | 0.01 | 0.01 | 96 | 1010.1 |
| 20260509090826 | 72 | 108 | 0.0 | 1.7 | 0.00 | 0.01 | 0.01 | 96 | 1009.9 |
| 20260509090323 | 72 | 111 | 0.0 | 1.7 | 0.00 | 0.01 | 0.01 | 95 | 1009.9 |
| 20260509085820 | 72 | 116 | 0.0 | 1.7 | 0.02 | 0.01 | 0.01 | 95 | 1009.9 |
| 20260509085318 | 72 | 86 | 0.9 | 1.7 | 0.02 | 0.01 | 0.01 | 95 | 1009.6 |
| 20260509084814 | 72 | 118 | 0.9 | 0.9 | 0.02 | 0.01 | 0.01 | 95 | 1010.0 |
| 20260509084311 | 72 | 112 | 0.0 | 0.9 | 0.02 | 0.00 | 0.00 | 95 | 1010.2 |
| 20260509083809 | 72 | 122 | 0.0 | 1.7 | 0.02 | 0.00 | 0.00 | 95 | 1010.2 |
| 20260509083305 | 72 | 119 | 0.0 | 0.9 | 0.00 | 0.00 | 0.00 | 95 | 1010.3 |
| 20260509082802 | 72 | 128 | 0.9 | 1.7 | 0.00 | 0.00 | 0.00 | 95 | 1010.3 |
| 20260509082258 | 72 | 117 | 0.0 | 0.9 | 0.00 | 0.00 | 0.00 | 94 | 1010.3 |
| 20260509081755 | 73 | 135 | 0.0 | 1.7 | 0.00 | 0.00 | 0.00 | 94 | 1010.4 |
| 20260509081253 | 73 | 126 | 0.9 | 1.7 | 0.00 | 0.00 | 0.00 | 94 | 1010.4 |
| 20260509080751 | 73 | 139 | 0.0 | 1.7 | 0.00 | 0.00 | 0.00 | 93 | 1010.4 |
| 20260509080248 | 73 | 103 | 0.9 | 1.7 | 0.00 | 0.00 | 0.00 | 93 | 1010.4 |
| 20260509075747 | 73 | 129 | 0.0 | 0.9 | 0.00 | 0.00 | 0.00 | 93 | 1010.3 |
| 20260509075244 | 73 | 149 | 0.0 | 0.0 | 0.00 | 0.00 | 0.00 | 92 | 1010.4 |
| 20260509074740 | 73 | 122 | 0.0 | 0.9 | 0.00 | 0.00 | 0.00 | 92 | 1010.5 |
| 20260509074238 | 73 | 128 | 0.0 | 0.9 | 0.00 | 0.00 | 0.00 | 92 | 1010.3 |
| 20260509073734 | 73 | 117 | 0.0 | 1.7 | 0.00 | 0.00 | 0.00 | 91 | 1010.3 |
| 20260509073231 | 73 | 157 | 0.0 | 0.9 | 0.00 | 0.00 | 0.00 | 91 | 1010.3 |
| 20260509072727 | 73 | 60 | 0.0 | 0.9 | 0.00 | 0.00 | 0.00 | 91 | 1010.1 |
| 20260509072224 | 73 | 37 | 0.0 | 0.9 | 0.00 | 0.00 | 0.00 | 91 | 1010.3 |
| 20260509071721 | 73 | 60 | 0.0 | 0.9 | 0.00 | 0.00 | 0.00 | 91 | 1010.5 |
| 20260509071218 | 73 | 143 | 0.0 | 0.9 | 0.00 | 0.00 | 0.00 | 91 | 1010.5 |
| 20260509070715 | 73 | 53 | 0.0 | 1.7 | 0.00 | 0.00 | 0.00 | 91 | 1010.3 |
| 20260509070211 | 73 | 37 | 0.0 | 0.9 | 0.00 | 0.00 | 0.00 | 91 | 1010.5 |
| 20260509065708 | 73 | 64 | 0.0 | 0.9 | 0.00 | 0.00 | 0.00 | 90 | 1010.5 |
| 20260509065203 | 73 | 50 | 0.0 | 0.9 | 0.00 | 0.00 | 0.00 | 90 | 1010.5 |
| 20260509064700 | 73 | 74 | 0.9 | 1.7 | 0.00 | 0.00 | 0.00 | 90 | 1010.5 |
| 20260509064158 | 73 | 107 | 0.9 | 1.7 | 0.00 | 0.00 | 0.00 | 90 | 1010.2 |
| 20260509063655 | 73 | 44 | 0.9 | 0.9 | 0.00 | 0.00 | 0.00 | 90 | 1010.4 |
| 20260509063152 | 73 | 53 | 1.7 | 1.7 | 0.00 | 0.00 | 0.00 | 90 | 1010.0 |
| 20260509062649 | 73 | 50 | 0.0 | 1.7 | 0.00 | 0.00 | 0.00 | 90 | 1010.3 |
| 20260509062146 | 73 | 73 | 0.0 | 0.9 | 0.00 | 0.00 | 0.00 | 90 | 1010.2 |
| 20260509061642 | 73 | 113 | 0.0 | 1.7 | 0.00 | 0.00 | 0.00 | 90 | 1010.0 |
| 20260509061140 | 73 | 129 | 0.9 | 1.7 | 0.00 | 0.00 | 0.00 | 90 | 1010.0 |
| 20260509060638 | 73 | 173 | 0.0 | 2.6 | 0.00 | 0.00 | 0.00 | 90 | 1010.0 |
| 20260509060133 | 73 | 120 | 1.7 | 2.6 | 0.00 | 0.00 | 0.00 | 90 | 1009.9 |
| 20260509055629 | 73 | 129 | 1.7 | 2.6 | 0.00 | 0.00 | 0.00 | 90 | 1010.0 |
| 20260509055125 | 73 | 86 | 0.9 | 2.6 | 0.00 | 0.00 | 0.00 | 90 | 1009.8 |
| 20260509054622 | 73 | 120 | 0.9 | 3.5 | 0.00 | 0.00 | 0.00 | 90 | 1009.9 |
| 20260509054120 | 73 | 127 | 1.7 | 2.6 | 0.00 | 0.00 | 0.00 | 90 | 1009.9 |
| 20260509053618 | 73 | 235 | 1.7 | 3.5 | 0.00 | 0.00 | 0.00 | 90 | 1009.9 |
| 20260509053115 | 73 | 130 | 3.5 | 5.2 | 0.00 | 0.00 | 0.00 | 90 | 1010.0 |
| 20260509052613 | 73 | 149 | 3.5 | 8.7 | 0.00 | 0.00 | 0.00 | 91 | 1009.8 |
| 20260509052110 | 72 | 135 | 1.7 | 3.5 | 0.00 | 0.00 | 0.00 | 90 | 1009.7 |
| 20260509051608 | 72 | 131 | 1.7 | 2.6 | 0.00 | 0.00 | 0.00 | 90 | 1009.5 |
| 20260509051105 | 72 | 106 | 2.6 | 7.0 | 0.00 | 0.00 | 0.00 | 90 | 1009.4 |
| 20260509050602 | 72 | 153 | 1.7 | 5.2 | 0.00 | 0.00 | 0.00 | 90 | 1009.3 |
| 20260509050058 | 72 | 89 | 0.0 | 2.6 | 0.00 | 0.00 | 0.00 | 90 | 1009.2 |
| 20260509045556 | 73 | 67 | 0.9 | 2.6 | 0.00 | 0.00 | 0.00 | 89 | 1009.2 |
| 20260509045052 | 73 | 85 | 0.9 | 4.3 | 0.00 | 0.00 | 0.00 | 89 | 1009.2 |
| 20260509044550 | 73 | 159 | 0.0 | 5.2 | 0.00 | 0.00 | 0.00 | 89 | 1009.0 |
| 20260509044047 | 73 | 99 | 0.9 | 4.3 | 0.00 | 0.00 | 0.00 | 89 | 1009.3 |
| 20260509043543 | 73 | 139 | 1.7 | 3.5 | 0.00 | 0.00 | 0.00 | 89 | 1009.3 |
| 20260509043039 | 73 | 121 | 1.7 | 2.6 | 0.00 | 0.00 | 0.00 | 88 | 1009.2 |
| 20260509042535 | 73 | 139 | 0.9 | 4.3 | 0.00 | 0.00 | 0.00 | 88 | 1009.6 |
| 20260509042032 | 73 | 51 | 0.9 | 3.5 | 0.00 | 0.00 | 0.00 | 88 | 1009.6 |
| 20260509041528 | 73 | 89 | 0.0 | 5.2 | 0.00 | 0.00 | 0.00 | 88 | 1009.5 |
| 20260509041026 | 73 | 160 | 0.0 | 3.5 | 0.00 | 0.00 | 0.00 | 88 | 1009.5 |
| 20260509040524 | 73 | 135 | 2.6 | 5.2 | 0.00 | 0.00 | 0.00 | 87 | 1009.5 |
| 20260509040021 | 73 | 122 | 3.5 | 4.3 | 0.00 | 0.00 | 0.00 | 87 | 1009.8 |
| 20260509035518 | 73 | 151 | 3.5 | 3.5 | 0.00 | 0.00 | 0.00 | 87 | 1009.5 |
| 20260509035014 | 73 | 155 | 1.7 | 4.3 | 0.00 | 0.00 | 0.00 | 88 | 1009.6 |
| 20260509034513 | 73 | 144 | 3.5 | 3.5 | 0.00 | 0.00 | 0.00 | 88 | 1009.7 |
| 20260509034009 | 73 | 129 | 0.0 | 3.5 | 0.00 | 0.00 | 0.00 | 88 | 1009.5 |